METEOSAT-11 (MSG-4)

Last updated on Tue Sep 22 2026 00:02:53 GMT+0000 (Coordinated Universal Time)

1 40732U 15034A 26264.56221769 .00000061 00000+0 00000+0 0 9992 2 40732 3.4376 70.4062 0000533 86.8059 54.9266 1.00275144 8180
UTC large
Height (km)
Speed (km/s)
/
Latitude / Longitude
Inclination (degrees)
Orbital Period (minutes)
Azimuth
Elevation
Range (km)
Doppler Factor

Next 0 passes for location: London (51.5072 / 0.1276)

No passes found over London.
METEOSAT-11 (MSG-4)